Rocky Mount, NC

1:17 AM EDT on September 22, 2017 (GMT -0400)
Rocky Mount-Wilson Regional

Weather History for KRWI - March, 2014

Change the Weather History Date:

Sunday, March 16, 2014

  Actual Average Record
Temperature  
Mean Temperature 46 °F -  
Max Temperature 57 °F 63 °F 86 °F (2016)
Min Temperature 37 °F 39 °F 20 °F (1979)
Degree Days  
Heating Degree Days 19    
Moisture  
Dew Point 36 °F    
Average Humidity 72    
Maximum Humidity 93    
Minimum Humidity 40    
Precipitation  
Precipitation 0.11 in - - ()
Sea Level Pressure  
Sea Level Pressure 29.98 in    
Wind  
Wind Speed 5 mph (NE)    
Max Wind Speed 17 mph    
Max Gust Speed 24 mph    
Visibility 8 miles    
Events Rain , Snow    
Averages and records for this station are not official NWS values.
T = Trace of Precipitation, MM = Missing Value Source: NWS Daily Summary

Daily Weather History Graph

Daily Weather History Graph

Search for Another Location

Airport or City:

Trip Planner

Search our weather history database for the weather conditions in past years. The results will help you decide how hot, cold, wet, or windy it might be!

Date:

Astronomy

Mar. 16, 2014 Rise Set
Actual Time 7:20 AM EDT 7:19 PM EDT
Civil Twilight 6:55 AM EDT 7:45 PM EDT
Nautical Twilight 6:25 AM EDT 8:15 PM EDT
Astronomical Twilight 5:55 AM EDT 8:45 PM EDT
Moon 7:33 PM EDT (3/16) 7:03 AM EDT (3/16)
Length of Visible Light 12h 49m
Length of Day
11h 58m
Full, 100% of the Moon is Illuminated
Mar 16
Full
Mar 16
Full
Mar 23
Last Quarter
Mar 30
New
Apr 7
First Quarter

Hourly Weather History & Observations

Time (EDT) Temp. Windchill Dew Point Humidity Pressure Visibility Wind Dir Wind Speed Gust Speed Precip Events Conditions
12:53 AM 46.0 °F - 37.0 °F 71% 30.05 in 10.0 mi Calm Calm - N/A   Clear
1:53 AM 43.0 °F 41.3 °F 36.0 °F 76% 30.05 in 10.0 mi NNE 3.5 mph - N/A   Clear
2:53 AM 43.0 °F - 37.9 °F 82% 30.05 in 10.0 mi Calm Calm - N/A   Clear
3:53 AM 39.9 °F - 37.0 °F 89% 30.03 in 10.0 mi Calm Calm - N/A   Clear
4:53 AM 44.1 °F 42.5 °F 39.0 °F 82% 30.03 in 10.0 mi NNE 3.5 mph - N/A   Clear
5:53 AM 42.1 °F 39.2 °F 30.9 °F 65% 30.03 in 10.0 mi NNE 4.6 mph - N/A   Clear
6:53 AM 44.1 °F - 30.0 °F 58% 30.04 in 10.0 mi Calm Calm - N/A   Clear
7:53 AM 42.1 °F 39.2 °F 30.9 °F 65% 30.04 in 10.0 mi NE 4.6 mph - N/A   Clear
8:53 AM 50.0 °F - 32.0 °F 50% 30.05 in 10.0 mi ENE 6.9 mph - N/A   Clear
9:53 AM 53.1 °F - 33.1 °F 47% 30.06 in 10.0 mi Variable 4.6 mph - N/A   Clear
10:53 AM 55.0 °F - 33.1 °F 43% 30.04 in 10.0 mi NE 9.2 mph - N/A   Overcast
11:53 AM 55.9 °F - 32.0 °F 40% 30.04 in 10.0 mi ENE 8.1 mph - N/A   Overcast
12:53 PM 55.9 °F - 32.0 °F 40% 30.05 in 10.0 mi NE 11.5 mph - N/A   Overcast
1:53 PM 55.0 °F - 36.0 °F 49% 30.04 in 10.0 mi ENE 4.6 mph - 0.00 in Rain Light Rain
2:53 PM 54.0 °F - 39.0 °F 57% 30.01 in 10.0 mi NE 5.8 mph - 0.00 in Rain Light Rain
3:53 PM 53.1 °F - 39.0 °F 59% 29.97 in 10.0 mi ENE 11.5 mph 17.3 mph 0.00 in   Overcast
4:53 PM 51.1 °F - 41.0 °F 68% 29.95 in 9.0 mi Variable 6.9 mph - 0.00 in Rain Light Rain
5:53 PM 48.0 °F - 41.0 °F 77% 29.93 in 10.0 mi ENE 8.1 mph - 0.01 in   Overcast
6:05 PM 48.0 °F - 39.9 °F 74% 29.94 in 10.0 mi ENE 10.4 mph 17.3 mph N/A   Overcast
6:53 PM 45.0 °F 40.6 °F 39.9 °F 82% 29.93 in 6.0 mi NE 8.1 mph - 0.00 in   Haze
7:53 PM 42.1 °F 35.2 °F 37.9 °F 85% 29.91 in 9.0 mi ENE 12.7 mph 16.1 mph 0.00 in   Overcast
8:08 PM 41.0 °F 32.5 °F 37.9 °F 89% 29.91 in 9.0 mi NE 17.3 mph 24.2 mph N/A   Overcast
8:53 PM 39.9 °F 33.9 °F 37.0 °F 89% 29.91 in 10.0 mi NE 9.2 mph - N/A   Overcast
9:53 PM 37.9 °F 31.5 °F 35.1 °F 89% 29.90 in 5.0 mi NE 9.2 mph - 0.01 in Rain Light Rain
10:31 PM 37.9 °F 31.5 °F 36.0 °F 93% 29.90 in 2.5 mi NNE 9.2 mph - 0.04 in Snow Light Snow
10:53 PM 37.9 °F 30.9 °F 36.0 °F 93% 29.89 in 3.0 mi NE 10.4 mph - 0.05 in Snow Light Snow
11:22 PM 39.0 °F 31.8 °F 37.0 °F 93% 29.88 in 2.5 mi NE 11.5 mph - 0.02 in Rain Light Rain
11:30 PM 39.0 °F 31.8 °F 36.0 °F 89% 29.88 in 4.0 mi NE 11.5 mph - 0.02 in Rain Light Rain
11:53 PM 37.9 °F 30.5 °F 36.0 °F 93% 29.86 in 4.0 mi NE 11.5 mph 20.7 mph 0.04 in Snow Light Snow